Regional Weather Roundup
Issued by NWS

Home | Current Version | Previous Version | Graphics & Text | Print | Product List | Glossary On
Versions: 1 2 3 4 5 6 7 8 9 10 11 12 13 14 15 16 17 18 19 20 21 22 23 24 25 26 27 28 29 30 31 32 33 34 35 36 37 38 39 40 41 42 43 44 45 46 47 48 49 50
000
ASUS43 KLOT 212004
RWRIL

ILLINOIS REGIONAL WEATHER ROUNDUP
NATIONAL WEATHER SERVICE CHICAGO/ROMEOVILLE IL
200 PM CST TUE NOV 21 2017

NOTE: "FAIR" INDICATES FEW OR NO CLOUDS BELOW 12,000 FEET WITH NO
SIGNIFICANT WEATHER AND/OR OBSTRUCTIONS TO VISIBILITY.

* THESE STATIONS ARE NOT UNDER NWS QUALITY CONTROL. THEY ALSO MAY NOT
  REPORT WEATHER SUCH AS PRECIPITATION OR FOG.

ILZ001-002-007-009-015-016-024-212100-
NORTHWEST ILLINOIS

CITY           SKY/WX    TMP DP  RH WIND       PRES   REMARKS
MOLINE         SUNNY     36  19  50 NW25G32   30.01R WCI  24
STERLING*      PTSUNNY   36  21  54 NW20      29.98  WCI  25
SAVANNA*       PTSUNNY   35  19  52 NW20G26   29.99R WCI  25
$$

ILZ003-004-008-010-011-017-018-212100-
NORTH CENTRAL ILLINOIS

CITY           SKY/WX    TMP DP  RH WIND       PRES   REMARKS
ROCKFORD       CLOUDY    36  18  48 NW20G29   29.96R WCI  25
FREEPORT*      CLOUDY    33  19  55 NW22G29   29.97R WCI  21
ROCHELLE*      CLOUDY    35  22  59 NW16G25   29.95R WCI  25
DE KALB*       CLOUDY    35  23  62 NW16G25   29.93R WCI  25
PERU*          CLOUDY    34  21  58 NW18G26   29.98R WCI  23
$$

ILZ005-006-012>014-019>023-212100-
NORTHEAST ILLINOIS

CITY           SKY/WX    TMP DP  RH WIND       PRES   REMARKS
CHICAGO-OHARE  CLOUDY    39  20  46 NW18      29.88R WCI  30
CHICAGO-MIDWAY NOT AVBL
AURORA         CLOUDY    35  24  64 NW20      29.92R WCI  24
LANSING*       CLOUDY    38  26  61 W10G16    29.90R WCI  31
JOLIET*        CLOUDY    37  21  52 NW14G21   29.93R WCI  28
WAUKEGAN       CLOUDY    33  17  51 NW13G29   29.90R WCI  24
DUPAGE AIRPORT CLOUDY    36  22  56 NW16      29.90R WCI  26
KANKAKEE*      HVY RAIN  36  29  76 NW8       29.93R WCI  29
WHEELING       CLOUDY    39  21  48 NW20G26   29.90R WCI  29
MORRIS*        CLOUDY    36  23  60 NW18      29.93R WCI  25
ROMEOVILLE*    CLOUDY    36  25  66 NW15      29.92R WCI  26
NORTHERLY ISL    N/A     40  18  41 W9          N/A
$$

LMZ740>746-212100-
SOUTHERN LAKE MICHIGAN

STATION/POSITION SKY/WX   TEMP    WIND        PRES    VSBY  WAVE
                          AIR SEA DIR/SP/G                  HT/PER
                          (F)     (DEG/KT/KT) (MB)    (MI)  (FT/S)
SOUTHERN BUOY              40 48  340/ 23/ 29 1009.4          4/ 4
HARRISON CRIB              41     300/ 16/ 19   N/A
BURNHAM HARBOR             40     270/ 11/ 15   N/A
CALUMET HARBOR             40     240/  5/ 12 1011.2R
BURNS HARBOR               41     250/ 17/ 26 1012.2R
MICHIGAN CITY              40     230/ 12/ 16   N/A
$$

ILZ025>027-034>036-040-047-049-050-058-095>099-212100-
WEST-CENTRAL ILLINOIS

CITY           SKY/WX    TMP DP  RH WIND       PRES   REMARKS
QUINCY         CLOUDY    43  21  41 NW21G29   30.03R
GALESBURG*     CLOUDY    36  24  61 NW17G23   30.03R WCI  26
MACOMB*        CLOUDY    37  22  54 NW23G30   30.05R WCI  26
JACKSONVILLE*  CLOUDY    43  24  48 NW14      30.02R
PITTSFIELD*    CLOUDY    45  25  45 NW15      30.04R
$$

ILZ028>032-037-038-041>044-048-051>054-059>061-212100-
CENTRAL ILLINOIS

CITY           SKY/WX    TMP DP  RH WIND       PRES   REMARKS
PONTIAC        CLOUDY    38  24  57 W18       29.97R WCI  29
BLOOMINGTON    CLOUDY    39  26  59 NW12      29.97R WCI  32
DECATUR        CLOUDY    47  30  51 N15G23    29.95R
PEORIA         CLOUDY    39  21  48 NW9G23    29.99R WCI  33
LACON*         CLOUDY    36  22  58 W12G22    29.99R WCI  27
LINCOLN*       CLOUDY    42  25  50 NW9       29.98R
SPRINGFIELD    CLOUDY    45  25  45 NW17G29   30.00R
TAYLORVILLE    CLOUDY    48  28  45 NW17      29.98R
$$

ILZ033-039-045-046-055>057-062-063-212100-
EAST-CENTRAL ILLINOIS

CITY           SKY/WX    TMP DP  RH WIND       PRES   REMARKS
CHAMPAIGN      PTSUNNY   46  31  55 N15       29.94R
DANVILLE*      CLOUDY    47  32  57 W13       29.91R
RANTOUL*       CLOUDY    43  26  49 NW17G23   29.94R
MATTOON        CLOUDY    52  36  54 NW10      29.92S
PARIS*         CLOUDY    51  39  63 W10       29.93R
$$

ILZ079-100>102-212100-
SOUTHWEST ILLINOIS

CITY           SKY/WX    TMP DP  RH WIND       PRES   REMARKS
ALTON          CLOUDY    54  34  47 NW12      29.98R
BELLEVILLE     PTSUNNY   57  33  40 W8        29.96R
CAHOKIA*       SUNNY     57  32  38 NW10      29.97R
SPARTA*        MOSUNNY   57  36  45 NW7       29.98R
$$

ILZ064>066-069>071-074>076-080>082-084>086-088>090-092>094-212100-
SOUTH-CENTRAL ILLINOIS

CITY           SKY/WX    TMP DP  RH WIND       PRES   REMARKS
CARBONDALE     MOSUNNY   56  36  47 SW10      29.96F
CAIRO*         CLOUDY    55  39  55 SW9       30.00R
EFFINGHAM*     CLOUDY    53  36  51 W6        29.94S
MARION         MOSUNNY   59  34  38 NW7G16    29.98R
MT. VERNON     CLOUDY    55  36  48 W6        29.97R
CENTRALIA*     MOSUNNY   56  38  49 W9        29.96R
SALEM*         MOSUNNY   57  35  43 SW13      29.96R
METROPOLIS*    MOSUNNY   57  37  46 SW9G16    29.99R
$$

ILZ067-068-072-073-078-083-087-091-212100-
SOUTHEAST ILLINOIS

CITY           SKY/WX    TMP DP  RH WIND       PRES   REMARKS
LAWRENCEVILLE  CLOUDY    56  36  47 SW10      29.95R
FLORA*         PTSUNNY   55  36  49 W9        29.96R
FAIRFIELD*     PTSUNNY   55  35  47 CALM      29.95R
HARRISBURG*    MOSUNNY   58  37  45 W13       29.97S
ROBINSON*      CLOUDY    52  35  51 W10       29.95S
CARMI*         MOSUNNY   58  36  43 W16       29.96S
$$

ABBREVIATIONS USED IN REMARKS
   TC - TEMPERATURE IN CELSIUS
  WCI - WIND CHILL INDEX
   HX - HEAT INDEX
  VSB - VISIBILITY
$$





USA.gov is the U.S. government's official web portal to all federal, state and local government web resources and services.